Location: Bettgenhausen
(50.6463°N, 7.5681°E)
Time: 03:36:02
(UTC+00:00)

Lacrosse 5 - Pass Details

Date: 27 February 2020
Orbit: 715 x 724 km, 57.0° (Epoch: 21 March)

Event Time Altitude Azimuth Distance (km) Brightness Sun altitude
Rises 18:46:28 0° 217° (SW) 3,106 5.6 -16.6°
Reaches altitude 10° 18:48:53 10° 212° (SSW) 2,190 4.7 -16.9°
Maximum altitude 18:53:44 50° 137° (SE) 911 2.1 -17.7°
Enters shadow 18:55:37 33° 83° (E) 1,198 2.5 -18.0°
